Meadow Lake, CO

9:33 AM MDT on June 22, 2017 (GMT -0600)
Meadow Lake

Weather History for KFLY - December, 2012

Change the Weather History Date:

Saturday, December 22, 2012

  Actual Average (KCOS) Record (KCOS)
Temperature  
Mean Temperature 37 °F -  
Max Temperature 54 °F 39 °F 69 °F (1955)
Min Temperature 20 °F 15 °F -24 °F (1990)
Degree Days  
Heating Degree Days 28    
Moisture  
Dew Point -1 °F    
Average Humidity 21    
Maximum Humidity 45    
Minimum Humidity 8    
Precipitation  
Precipitation 0.00 in - - ()
Sea Level Pressure  
Sea Level Pressure 30.04 in    
Wind  
Wind Speed 10 mph (West)    
Max Wind Speed 16 mph    
Max Gust Speed 23 mph    
Visibility 10 miles    
Events      
Averages and records for this station are not official NWS values.
T = Trace of Precipitation, MM = Missing Value Source: NWS Daily Summary

Daily Weather History Graph

Daily Weather History Graph

Search for Another Location

Airport or City:

Trip Planner

Search our weather history database for the weather conditions in past years. The results will help you decide how hot, cold, wet, or windy it might be!

Date:

Astronomy

Dec. 22, 2012 Rise Set
Actual Time 7:14 AM MST 4:40 PM MST
Civil Twilight 6:44 AM MST 5:10 PM MST
Nautical Twilight 6:10 AM MST 5:43 PM MST
Astronomical Twilight 5:38 AM MST 6:16 PM MST
Moon 12:57 PM MST 2:03 AM MST
Length of Visible Light 10h 26m
Length of Day
9h 26m
Waxing Gibbous, 74% of the Moon is Illuminated
Dec 22
Waxing Gibbous
Dec 28
Full
Jan 4
Last Quarter
Jan 11
New
Jan 18
First Quarter

Hourly Weather History & Observations

Time (MST) Temp. Windchill Dew Point Humidity Pressure Visibility Wind Dir Wind Speed Gust Speed Precip Events Conditions
12:14 AM 31.3 °F 22.1 °F -1.3 °F 25% 30.08 in 10.0 mi NNW 11.5 mph - N/A   Clear
12:34 AM 32.0 °F 21.2 °F -0.9 °F 24% 30.08 in 10.0 mi NW 16.1 mph - N/A   Clear
12:54 AM 36.9 °F 28.2 °F -1.3 °F 20% 30.09 in 10.0 mi NW 13.8 mph - N/A   Clear
1:14 AM 32.7 °F 25.7 °F -0.4 °F 24% 30.10 in 10.0 mi WNW 8.1 mph - N/A   Clear
1:34 AM 32.4 °F 23.5 °F -1.7 °F 23% 30.07 in 10.0 mi NW 11.5 mph - N/A   Clear
1:54 AM 35.8 °F 27.8 °F -2.7 °F 19% 30.08 in 10.0 mi NW 11.5 mph - N/A   Clear
2:14 AM 33.3 °F 30.2 °F -4.0 °F 20% 30.08 in 10.0 mi NW 3.5 mph - N/A   Clear
2:34 AM 32.2 °F 23.8 °F -3.8 °F 21% 30.08 in 10.0 mi NW 10.4 mph - N/A   Clear
2:54 AM 32.0 °F 24.2 °F -3.8 °F 21% 30.07 in 10.0 mi NW 9.2 mph - N/A   Clear
3:14 AM 37.2 °F 34.7 °F -6.5 °F 15% 30.07 in 10.0 mi West 3.5 mph - N/A   Clear
3:34 AM 37.4 °F 33.8 °F -7.2 °F 15% 30.07 in 10.0 mi West 4.6 mph - N/A   Clear
3:54 AM 34.0 °F 28.0 °F -7.2 °F 17% 30.06 in 10.0 mi WNW 6.9 mph - N/A   Clear
4:14 AM 24.8 °F 14.6 °F -3.3 °F 29% 30.06 in 10.0 mi WNW 10.4 mph - N/A   Clear
4:34 AM 29.7 °F 19.6 °F -3.5 °F 24% 30.06 in 10.0 mi NW 12.7 mph - N/A   Clear
4:54 AM 30.7 °F 22.0 °F -4.2 °F 22% 30.06 in 10.0 mi NW 10.4 mph - N/A   Clear
5:14 AM 34.2 °F 29.0 °F -5.4 °F 18% 30.06 in 10.0 mi NNW 5.8 mph - N/A   Clear
5:34 AM 34.7 °F 25.9 °F -5.6 °F 18% 30.06 in 10.0 mi NW 12.7 mph - N/A   Clear
5:54 AM 36.7 °F 27.2 °F -6.5 °F 16% 30.06 in 10.0 mi NW 16.1 mph - N/A   Clear
6:14 AM 38.7 °F 30.5 °F -6.9 °F 14% 30.07 in 10.0 mi NW 13.8 mph - N/A   Clear
6:34 AM 35.6 °F 26.2 °F -7.2 °F 16% 30.07 in 10.0 mi NW 15.0 mph - N/A   Clear
6:54 AM 38.5 °F 30.7 °F -8.9 °F 13% 30.07 in 10.0 mi WNW 12.7 mph - N/A   Clear
7:14 AM 39.2 °F 31.2 °F -9.2 °F 13% 30.07 in 10.0 mi WNW 13.8 mph - N/A   Clear
7:34 AM 40.5 °F 32.5 °F -9.4 °F 12% 30.07 in 10.0 mi WNW 15.0 mph 23.0 mph N/A   Clear
7:54 AM 37.8 °F 29.8 °F -7.6 °F 14% 30.07 in 10.0 mi WNW 12.7 mph - N/A   Clear
8:14 AM 37.6 °F 29.6 °F -8.3 °F 14% 30.07 in 10.0 mi WNW 12.7 mph - N/A   Clear
8:34 AM 41.2 °F 35.0 °F -8.1 °F 12% 30.08 in 10.0 mi WNW 10.4 mph - N/A   Clear
8:54 AM 43.9 °F 38.3 °F -6.3 °F 12% 30.08 in 10.0 mi WNW 10.4 mph 16.1 mph N/A   Clear
9:14 AM 47.7 °F - -4.7 °F 11% 30.08 in 10.0 mi WNW 8.1 mph 16.1 mph N/A   Clear
9:34 AM 43.0 °F 36.8 °F -4.7 °F 13% 30.09 in 10.0 mi NW 11.5 mph 17.3 mph N/A   Clear
9:54 AM 42.6 °F 36.8 °F -5.1 °F 13% 30.08 in 10.0 mi WNW 10.4 mph - N/A   Clear
10:14 AM 46.4 °F 41.9 °F -3.3 °F 13% 30.08 in 10.0 mi WNW 9.2 mph - N/A   Clear
10:34 AM 49.3 °F - -3.1 °F 11% 30.07 in 10.0 mi WNW 11.5 mph 17.3 mph N/A   Clear
10:54 AM 51.8 °F - -2.4 °F 11% 30.06 in 10.0 mi NW 16.1 mph - N/A   Clear
11:14 AM 52.9 °F - -2.6 °F 10% 30.05 in 10.0 mi NNW 12.7 mph 19.6 mph N/A   Clear
11:34 AM 52.0 °F - -8.9 °F 8% 30.04 in 10.0 mi NNW 12.7 mph 19.6 mph N/A   Clear
11:54 AM 52.0 °F - -7.6 °F 8% 30.04 in 10.0 mi North 11.5 mph 17.3 mph N/A   Clear
12:14 PM 52.5 °F - -2.6 °F 10% 30.02 in 10.0 mi NW 4.6 mph - N/A   Clear
12:34 PM 54.0 °F - -5.8 °F 8% 30.02 in 10.0 mi West 8.1 mph - N/A   Clear
12:54 PM 54.9 °F - -4.2 °F 9% 30.02 in 10.0 mi SW 6.9 mph - N/A   Clear
1:14 PM 53.8 °F - -3.8 °F 9% 30.02 in 10.0 mi WSW 5.8 mph - N/A   Clear
1:34 PM 50.0 °F - 7.5 °F 18% 30.02 in 10.0 mi ENE 9.2 mph - N/A   Clear
1:54 PM 47.3 °F - 9.7 °F 22% 30.01 in 10.0 mi NE 9.2 mph - N/A   Clear
2:14 PM 48.7 °F - 6.3 °F 18% 30.01 in 10.0 mi ENE 6.9 mph - N/A   Clear
2:34 PM 48.7 °F - 7.0 °F 18% 30.01 in 10.0 mi ENE 6.9 mph - N/A   Clear
2:54 PM 48.6 °F - 4.3 °F 16% 30.01 in 10.0 mi East 6.9 mph - N/A   Clear
3:14 PM 46.0 °F 41.4 °F 7.9 °F 21% 30.01 in 10.0 mi ESE 9.2 mph - N/A   Clear
3:34 PM 44.1 °F 40.8 °F 9.3 °F 24% 30.02 in 10.0 mi East 5.8 mph - N/A   Clear
3:54 PM 41.9 °F 39.0 °F 10.0 °F 27% 30.02 in 10.0 mi SSE 4.6 mph - N/A   Clear
4:14 PM 40.8 °F 38.8 °F 8.8 °F 27% 30.02 in 10.0 mi SSE 3.5 mph - N/A   Clear
4:34 PM 40.3 °F 37.1 °F 8.1 °F 27% 30.02 in 10.0 mi SSW 4.6 mph - N/A   Clear
4:54 PM 37.8 °F 33.3 °F 8.1 °F 29% 30.02 in 10.0 mi SW 5.8 mph - N/A   Clear
5:14 PM 36.3 °F 31.6 °F 6.1 °F 28% 30.03 in 10.0 mi SW 5.8 mph - N/A   Clear
5:34 PM 34.9 °F 29.0 °F 5.9 °F 30% 30.03 in 10.0 mi SW 6.9 mph - N/A   Clear
5:54 PM 33.8 °F 27.0 °F 4.8 °F 30% 30.02 in 10.0 mi SSW 8.1 mph - N/A   Clear
6:14 PM 32.0 °F 25.6 °F 4.8 °F 32% 30.02 in 10.0 mi WSW 6.9 mph - N/A   Clear
6:34 PM 31.6 °F 24.4 °F 4.6 °F 32% 30.02 in 10.0 mi South 8.1 mph - N/A   Clear
6:54 PM 30.2 °F 24.3 °F 3.4 °F 32% 30.03 in 10.0 mi SSW 5.8 mph - N/A   Clear
7:14 PM 32.0 °F 26.4 °F 3.0 °F 29% 30.03 in 10.0 mi SSW 5.8 mph - N/A   Clear
7:34 PM 29.1 °F - 3.2 °F 33% 30.02 in 10.0 mi Calm Calm - N/A   Clear
7:54 PM 30.2 °F 24.3 °F 1.4 °F 29% 30.02 in 10.0 mi South 5.8 mph - N/A   Clear
8:14 PM 31.5 °F 25.8 °F 0.3 °F 27% 30.02 in 10.0 mi SSW 5.8 mph - N/A   Clear
8:34 PM 29.1 °F - -0.0 °F 29% 30.02 in 10.0 mi Calm Calm - N/A   Clear
8:54 PM 30.0 °F 24.1 °F 1.2 °F 29% 30.02 in 10.0 mi SW 5.8 mph - N/A   Clear
9:14 PM 26.4 °F 20.9 °F 1.4 °F 34% 30.02 in 10.0 mi WSW 4.6 mph - N/A   Clear
9:34 PM 20.8 °F 13.2 °F 2.5 °F 45% 30.02 in 10.0 mi West 5.8 mph - N/A   Clear
9:54 PM 27.0 °F 20.5 °F 1.4 °F 33% 30.01 in 10.0 mi SW 5.8 mph - N/A   Clear
10:14 PM 27.0 °F 20.5 °F 1.8 °F 34% 30.01 in 10.0 mi West 5.8 mph - N/A   Clear
10:34 PM 24.4 °F 18.6 °F 1.8 °F 38% 30.01 in 10.0 mi SSW 4.6 mph - N/A   Clear
10:54 PM 28.8 °F 20.2 °F 2.1 °F 32% 30.00 in 10.0 mi WSW 9.2 mph - N/A   Clear
11:14 PM 27.3 °F 22.0 °F 3.0 °F 35% 29.99 in 10.0 mi West 4.6 mph - N/A   Clear
11:34 PM 29.1 °F 21.3 °F 2.3 °F 32% 29.99 in 10.0 mi WSW 8.1 mph - N/A   Clear
11:54 PM 27.7 °F 22.4 °F 1.4 °F 32% 29.98 in 10.0 mi WSW 4.6 mph - N/A   Clear